STARLINK-5900, 55948

Orbit data source: Space-Track

STARLINK-5900, 55948 is a payload satellite owned by SpaceX/Seattle (US) in LEO that was launched on Fri, 17 Mar 2023 UTC via an FALCON 9 launch vehicle from the Air Force Western Test Range (AFWTR). Payload-class satellites include a variety of spacecraft equipped with specific instruments for various scientific and technological missions. These include communications satellites like Starlink; space stations such as the ISS; scientific satellites like the Hubble; Earth observation satellites from companies like Planet Labs, Umbra, and HawkEye 360; GPS; miniature CubeSats for education and research; and military/defense satellites.

Loading next visibility...
Identifier
55948, 2023-037AL
Orbit
LEO
Country
Flag of USUS
Related business
Manufacturer
SpaceX/Seattle
Mission
Operational Commercial Communications
Bus & Motor
STARLINK, Unknown motor
Mass
305 kg wet, ~290 kg dry
Launch date (UTC)
2023-03-17 (3 years ago)
Launch vehicle
FALCON 9
Launch site
Air Force Western Test Range (AFWTR)
Object type
Payload
Rocket body
Debris
Shape & HBR
Box + 1 Pan, 10.1 m
Radar Cross Section
11.087 m², Large (>1 m²)

Expand to show TLE details & history
Last TLE update: 2 days ago

TLE from 2 days ago
0 STARLINK-5900
1 55948U 23037AL  26170.98780860  .00000527  00000-0  51973-4 0  9991
2 55948  70.0002   6.6404 0002819 268.6513  91.4323 14.98341583179794
Epoch: 2026-06-19T23:42Z
TLE epoch observation values (Epoch: 2026-06-19T23:42:26.663Z)
Latitude
-0.00001°
Longitude
102.8204°
Altitude
574.493 km
Speed
7.574 km/s
True Right ascension
00h 26m 33s
True Declination
0° 00' 00"
Sunlit
Object was in daylight at epoch
Visualization orbit readout
Latitude
Unknown
Longitude
Unknown
Altitude
Unknown
Speed
Unknown
Apparent Right ascension
Unknown
Apparent Declination
Unknown
Sunlit
N/A
Visualization observer readout
Local Sidereal Time
21:39:04
Azimuth
Unknown
Elevation
Unknown
Doppler factor
Unknown
Orbital elements
Apogee altitude
571.927 km
Perigee altitude
568.01 km
Semi-major axis
6,948.105 km
Eccentricity
0.00028
Inclination
70.0002°
RAAN
6.6404°
Arg. of periapsis
268.6513°
True anomaly
91.46459°
Mean anomaly
91.4323°
Eccentric anomaly
91.44845°
Mean motion
3.74752 °/min
Orbital period
96.06 mins
BSTAR
0.000051973
Loading maneuver chart data...
Computing Atmospheric mass density...
Loading historical data...
Loading historical data...
Loading historical data...
Loading historical data...
Loading historical data...
Loading historical data...
Loading historical data...

Documentation

Showing up to 5 results
|